This demonstration page uses our WeatherBlox Daily Observations layout. Learn more.

Left ArrowRight Arrow

41.12389, -100.76542

Hourly Observations for May 30, 2022

Temp ( °F °C ) Dew Point ( °F °C ) Humidity (%) Winds ( mph kmh ) Pressure ( in mb ) Visibility ( mi km ) Precip ( " mm )
12:53 am 00:53 Mostly Cloudy 61 16.1 51 10.6 70 70 NNW 9 15 29.35 994 10 16 0.00 0.00
1:53 am 01:53 Cloudy with Thunderstorms 61 16.1 51 10.6 70 70 ENE 8 13 29.36 994 10 16 0.00 0.00
2:03 am 02:03 Mostly Cloudy with Light Rain 59 15 52 11.1 78 78 NNE 7 11 29.36 994 10 16 0.02 0.51
2:53 am 02:53 Mostly Cloudy 59 15 54 12.2 83 83 SSW 3 6 29.40 996 10 16 0.02 0.51
3:03 am 03:03 Cloudy with Nearby Thunderstorms 58 14.4 54 12.2 87 87 WSW 12 19 29.46 998 10 16 0.00 0.00
3:15 am 03:15 Windy with Storms Likely 60 15.6 52 11.1 75 75 N 22 35 29.31 992 8 13 0.00 0.00
3:21 am 03:21 Cloudy with Thunderstorms 58 14.4 52 11.1 81 81 NE 16 26 29.31 993 6 10 0.10 2.54
3:33 am 03:33 Partly Cloudy with Nearby Thunderstorms 58 14.4 52 11.1 81 81 ENE 10 17 29.37 995 10 16 0.11 2.79
3:46 am 03:46 Mostly Clear 58 14.4 52 11.1 81 81 ENE 9 15 29.37 995 10 16 0.11 2.79
3:53 am 03:53 Clear 58 14.4 52 11.1 81 81 NE 5 7 29.34 994 10 16 0.11 2.79
4:53 am 04:53 Clear 56 13.3 52 11.1 87 87 ESE 7 11 29.36 994 10 16 0.00 0.00
5:53 am 05:53 Partly Cloudy 57 13.9 53 11.7 87 87 ENE 5 7 29.32 993 10 16 0.00 0.00
6:53 am 06:53 Cloudy 56 13.3 53 11.7 90 90 Calm 29.36 994 10 16 0.00 0.00
7:22 am 07:22 Windy with Storms Likely 58 14.4 54 12.2 87 87 W 25 41 29.42 996 10 16 0.01 0.25
7:53 am 07:53 Cloudy with Thunderstorms 58 14.4 54 12.2 87 87 W 7 11 29.41 996 10 16 0.06 1.52
8:07 am 08:07 Mostly Cloudy with Light Rain 58 14.4 54 12.2 87 87 Calm 29.44 997 10 16 0.01 0.25
8:53 am 08:53 Cloudy 59 15 54 12.2 83 83 WSW 14 22 29.44 997 10 16 0.01 0.25
9:53 am 09:53 Cloudy with Nearby Thunderstorms 58 14.4 53 11.7 84 84 WNW 8 13 29.39 995 10 16 0.00 0.00
10:28 am 10:28 Cloudy with Light Rain 58 14.4 54 12.2 87 87 NE 7 11 29.38 995 10 16 0.01 0.25
10:53 am 10:53 Cloudy with Light Rain 59 15 54 12.2 83 83 NE 10 17 29.34 994 10 16 0.03 0.76
11:53 am 11:53 Partly Cloudy 65 18.3 55 12.8 70 70 WSW 17 28 29.36 994 10 16 0.01 0.25
12:53 pm 12:53 Mostly Cloudy 65 18.3 55 12.8 70 70 W 17 28 29.38 995 10 16 0.00 0.00
1:53 pm 13:53 Mostly Sunny 68 20 52 11.1 57 57 W 21 33 29.40 996 10 16 0.00 0.00
2:53 pm 14:53 Mostly Sunny 68 20 47 8.3 47 47 W 29 46 29.44 997 10 16 0.00 0.00
3:53 pm 15:53 Partly Cloudy 68 20 48 8.9 49 49 W 26 43 29.50 999 10 16 0.00 0.00
4:53 pm 16:53 Mostly Sunny 66 18.9 45 7.2 47 47 W 24 39 29.54 1000 10 16 0.00 0.00
5:53 pm 17:53 Mostly Cloudy 66 18.9 46 7.8 49 49 WNW 21 33 29.58 1002 10 16 0.00 0.00
6:53 pm 18:53 Sunny 64 17.8 45 7.2 50 50 W 23 37 29.62 1003 10 16 0.00 0.00
7:53 pm 19:53 Sunny 59 15 43 6.1 56 56 W 14 22 29.65 1004 10 16 0.00 0.00
8:53 pm 20:53 Sunny 57 13.9 44 6.7 62 62 W 10 17 29.67 1005 10 16 0.00 0.00
9:53 pm 21:53 Clear 58 14.4 43 6.1 58 58 W 15 24 29.70 1006 10 16 0.00 0.00
10:53 pm 22:53 Clear 58 14.4 43 6.1 58 58 WNW 21 33 29.72 1006 10 16 0.00 0.00
11:53 pm 23:53 Clear 54 12.2 43 6.1 67 67 W 13 20 29.72 1006 10 16 0.00 0.00

Powered by AerisWeather